Powrót do katalogu

STARLINK-35702

AktywnyŁącznośćVLEO
NORAD 66876·PAYLOAD·🇺🇸 United States

Wystrzelony Dec 2, 2025 z Cape Canaveral Space Force Station

Loading…

Następne Przeloty (najbliższe 24 godziny)

TLE

ŚwieżeSource: CelesTrak SupGP

Epoka: Sep 14, 2026, 20:58 UTC

1 66876C 25281AE  26257.87409722  .00004062  00000+0  14710-3 0  2576
2 66876  43.0026 355.0204 0001526 268.0629 293.6881 15.27579913    13

Śledź STARLINK-35702 w czasie rzeczywistym z AllMySat

Download on the App Store